Wind_Speed
15 12 10 2 7 12 8 8 13 8 8 13 9 13 17 16 20 15 11 13 8 2 7 8 7 7 8 9 5 4 4 6 5 5 5 8 9 11 11 14 12 11 10 12
17 15 5 4 9 7 4 5 7 12 10 14 15 16 19 18 9 11 14 8 3 2 5 10 7 10 11 9 9 8 6 5 3 4 8 6 10 9 11 13 13 15 13 13
19 13 3 5 5 7 6 11 11 10 11 14 17 19 8 5 8 7 3 5 2 3 2 8 5 7 14 7 3 8 3 5 4 4 4 7 5 6 6 6 11 8 13 14
17 12 7 5 6 5 4 7 8 8 13 12 14 6 8 1 2 3 2 3 2 3 1 4 5 5 5 1 3 4 5 2 5 4 2 5 5 6 9 10 13 16 17 16
8 9 9 10 7 4 8 10 11 12 13 6 3 4 8 6 5 6 4 4 2 1 5 4 5 4 4 5 1 4 4 5 5 4 2 3 4 5 5 6 10 14 17 21
14 9 10 10 8 10 11 11 12 8 5 2 3 5 2 6 7 7 7 7 4 1 6 5 7 12 6 6 6 5 4 3 4 3 2 4 4 6 7 8 10 12 15 18
10 4 7 13 11 10 12 11 5 4 5 5 9 2 2 8 7 5 6 7 6 2 4 4 6 4 4 7 9 9 15 14 9 5 5 5 6 6 7 10 12 14 17 18
1 2 6 7 5 4 7 8 3 2 1 7 3 2 3 6 6 2 4 7 6 6 8 6 9 14 8 13 19 13 24 23 11 8 6 6 8 9 9 11 14 17 17 19
2 2 8 5 3 3 2 2 5 2 2 2 2 1 5 3 3 4 5 7 7 8 9 6 11 8 11 11 15 14 19 14 9 6 7 9 10 11 10 12 14 18 16 16
8 7 3 3 3 3 2 2 3 3 1 3 4 5 8 9 9 3 4 7 3 6 6 8 5 9 3 3 11 15 14 15 19 4 9 12 14 15 14 12 13 17 15 12
18 19 9 4 0 2 0 2 2 4 3 5 2 4 6 8 9 6 5 4 5 6 3 2 2 4 7 9 13 18 15 14 11 16 15 14 19 16 16 12 13 14 13 11
14 9 12 5 2 3 7 5 7 3 3 5 3 4 9 10 10 8 6 2 7 9 11 6 4 9 12 14 16 14 24 16 17 13 18 17 19 21 15 13 12 13 10 13
8 8 3 1 3 6 9 10 11 8 7 8 3 3 11 11 12 9 8 7 9 11 13 11 9 9 12 11 11 11 7 17 18 19 21 19 16 14 12 13 12 11 10 3
8 10 9 9 8 8 8 7 8 9 7 8 13 20 13 14 19 23 23 15 12 14 13 9 8 9 9 9 12 13 12 13 12 20 24 24 16 11 14 15 13 9 11 12
10 11 11 10 11 11 11 10 12 13 14 17 22 22 21 19 20 20 21 18 17 12 10 10 9 8 11 14 18 20 15 11 15 15 17 20 15 16 20 16 16 13 12 13
11 8 8 9 11 13 16 16 17 20 20 21 18 20 20 18 18 20 21 22 19 19 17 15 13 13 13 16 21 22 16 9 10 11 18 18 18 21 22 19 20 18 14 14
14 13 13 17 16 19 17 21 22 18 12 11 13 14 16 14 14 18 20 20 21 21 21 20 20 19 19 18 22 18 17 18 15 13 20 23 25 26 26 23 25 21 20 16
21 19 17 13 9 4 13 13 10 9 13 14 13 14 16 16 18 19 20 20 22 21 22 23 24 25 23 21 21 23 21 23 26 28 29 28 29 31 29 30 27 27 24 23
6 11 12 6 15 5 7 10 10 11 12 14 13 14 17 18 20 20 20 23 23 25 25 25 25 27 27 25 23 23 26 23 23 29 33 30 32 32 34 31 29 31 29 25
1 5 13 9 4 7 8 16 17 17 15 14 16 18 20 23 26 23 23 25 25 27 30 31 30 31 30 33 36 39 41 31 28 27 30 34 31 30 33 35 34 30 32 28
5 5 5 5 4 4 8 11 12 8 11 13 15 18 23 27 30 32 33 35 36 37 37 38 40 42 42 41 42 47 48 44 38 36 33 36 37 34 34 32 36 35 32 33
6 5 4 4 3 6 7 10 12 16 20 23 26 29 35 38 41 44 46 49 49 50 50 49 49 48 45 45 46 47 49 48 49 48 47 45 44 42 39 37 32 34 34 35
8 9 6 7 8 15 16 18 20 23 28 32 35 34 37 40 40 42 45 47 48 49 50 52 53 53 50 47 44 45 46 49 51 52 49 49 49 49 43 44 37 32 32 33
12 11 10 13 12 16 19 22 26 27 28 30 32 36 36 40 42 45 45 44 44 46 46 46 47 49 47 42 42 43 42 45 48 48 44 41 44 44 44 44 43 37 32 31
13 14 16 17 17 21 23 21 22 26 29 32 34 37 39 43 46 45 42 39 36 35 36 40 43 42 41 39 39 39 39 42 45 48 47 42 41 41 42 43 42 37 35 32
12 12 17 23 24 25 22 20 25 31 32 34 38 40 38 43 41 38 40 36 34 34 35 36 34 33 33 32 32 35 38 39 39 40 41 41 40 39 39 40 40 37 34 36
Wind_Direction
217 192 190 325 342 338 326 306 312 320 358 353 265 277 311 305 302 311 300 300 324 45 311 266 254 197 180 156 196 189 219 244 248 291 249 223 229 245 248 239 236 223 225 228
197 192 201 315 345 335 281 271 325 315 338 325 329 308 294 292 297 306 294 291 78 289 287 278 279 257 223 163 328 173 168 190 234 283 242 235 213 215 219 221 228 233 229 233
200 178 228 317 345 331 316 292 298 312 329 319 314 316 330 310 297 321 347 119 181 236 303 283 286 293 252 215 141 131 125 204 249 277 241 224 208 205 215 230 231 241 233 228
215 218 258 283 314 316 310 318 328 324 332 332 326 293 26 323 228 110 126 115 99 210 313 295 267 254 305 39 355 16 331 202 247 288 262 228 232 241 214 204 217 227 232 232
214 226 249 276 291 270 316 315 309 317 317 321 3 312 8 55 83 143 174 190 263 307 263 269 278 244 312 262 192 231 320 292 283 298 281 270 267 255 241 248 249 251 245 238
243 251 271 279 273 273 305 309 310 307 359 7 24 350 348 316 289 238 243 241 254 240 182 223 269 261 236 272 236 216 252 282 320 284 320 332 317 291 276 267 265 267 262 254
266 268 299 264 258 267 289 313 333 4 10 237 341 63 286 4 333 223 255 261 261 254 220 208 206 209 191 244 259 247 218 222 218 243 280 288 310 318 298 283 277 274 272 263
337 95 36 88 225 264 300 358 28 220 261 296 359 35 304 336 1 308 212 218 244 279 290 229 207 182 185 261 253 248 263 290 214 190 241 287 299 308 316 297 288 286 270 268
288 111 44 113 46 353 283 346 341 273 289 299 319 239 329 289 288 286 250 236 244 269 258 256 263 242 327 303 242 251 266 277 255 189 237 269 290 298 306 308 299 299 277 273
265 286 192 95 75 67 41 15 339 330 170 289 290 271 252 247 228 227 258 290 262 226 203 309 287 322 324 273 279 259 263 278 275 273 272 279 279 287 286 300 307 298 274 265
244 246 259 272 99 121 351 51 6 310 252 182 227 271 288 239 232 206 180 146 66 32 11 43 76 295 275 258 301 248 272 251 251 266 269 270 278 279 276 289 316 307 297 242
234 235 247 172 203 303 324 324 306 282 254 256 255 287 323 230 202 215 216 293 355 351 352 344 317 313 306 303 284 258 249 249 253 260 266 263 270 273 273 289 296 305 334 234
189 212 187 118 231 239 246 284 292 306 282 287 233 248 333 234 229 241 254 283 311 322 314 308 303 293 290 300 284 300 315 224 253 268 262 253 258 278 278 279 281 295 284 253
240 255 254 257 277 259 262 279 290 291 271 275 273 294 268 276 263 267 262 264 286 300 290 253 243 261 263 257 260 271 287 258 244 263 269 270 249 251 273 276 278 283 280 246
257 258 251 257 255 251 253 265 276 276 278 274 289 283 287 284 281 272 250 254 269 260 238 245 246 240 261 265 264 272 289 286 270 263 267 285 271 264 263 266 270 268 269 260
259 252 249 245 248 260 263 264 270 276 283 289 280 278 280 280 279 277 270 271 260 250 241 256 240 247 249 266 260 258 275 279 289 277 263 273 274 269 267 262 261 265 262 262
257 257 264 267 272 270 264 268 268 277 282 285 285 280 281 278 277 276 269 262 250 249 257 261 262 261 264 269 263 258 264 285 292 299 286 281 275 270 270 269 266 258 253 246
257 261 260 261 249 237 254 249 237 254 292 305 304 291 277 265 264 260 262 269 274 273 274 277 280 279 270 263 259 274 286 291 287 286 294 279 275 271 268 267 263 261 255 250
240 237 225 221 209 224 190 213 221 247 270 270 272 272 267 263 256 256 270 273 279 284 286 283 282 280 283 272 272 275 285 281 278 273 279 284 284 272 269 266 267 259 256 251
181 225 217 220 215 215 233 227 236 250 259 258 253 251 256 262 267 275 281 283 280 282 284 282 279 280 276 276 280 277 281 267 261 256 266 279 278 278 273 266 264 268 257 250
234 254 255 233 242 227 250 236 255 265 275 281 282 280 275 275 277 280 280 278 280 279 278 278 279 279 278 275 270 270 270 269 266 264 268 274 275 270 268 269 263 264 263 252
288 293 258 271 254 248 239 266 277 282 284 289 287 286 286 284 283 282 282 282 280 279 279 278 277 276 274 272 273 268 264 264 266 267 268 269 271 268 259 262 262 262 263 258
273 268 265 271 263 286 294 295 291 290 292 293 292 293 292 291 292 294 292 288 286 284 282 278 276 275 273 272 271 270 268 268 266 267 269 269 266 263 257 254 259 262 261 263
277 271 272 277 277 281 286 294 297 299 301 300 298 298 298 294 294 294 296 290 290 292 289 283 278 273 271 269 272 269 265 264 265 267 267 265 263 258 254 250 253 259 262 260
280 285 289 287 285 288 291 291 300 308 307 305 300 299 300 300 297 296 297 298 296 298 300 291 279 273 269 267 266 266 267 266 264 262 262 261 257 257 252 248 249 252 256 259
284 282 285 287 292 291 290 296 306 310 305 301 302 301 298 302 302 298 296 297 292 292 299 300 292 274 266 265 262 264 265 266 268 260 259 259 253 256 255 250 246 249 250 256
Height
3176 3178 3180 3180 3180 3179 3179 3178 3176 3175 3175 3174 3172 3172 3168 3169 3168 3168 3166 3167 3169 3171 3174 3175 3175 3171 3172 3171 3176 3177 3178 3180 3182 3180 3181 3181 3182 3182 3183 3186 3187 3189 3191 3192
3177 3177 3179 3178 3178 3177 3176 3176 3176 3174 3173 3172 3171 3169 3167 3165 3165 3164 3164 3164 3168 3170 3171 3173 3173 3171 3169 3176 3174 3170 3174 3177 3178 3178 3179 3179 3179 3181 3182 3182 3184 3186 3188 3190
3174 3177 3176 3176 3176 3176 3175 3175 3174 3173 3172 3171 3169 3165 3164 3163 3162 3162 3162 3164 3167 3169 3170 3171 3172 3170 3169 3162 3173 3171 3174 3175 3176 3177 3176 3177 3178 3179 3180 3181 3183 3184 3186 3187
3174 3175 3175 3176 3176 3175 3174 3173 3172 3171 3170 3169 3168 3165 3161 3161 3161 3162 3164 3166 3167 3168 3168 3169 3170 3170 3170 3171 3172 3173 3175 3175 3177 3177 3176 3175 3175 3177 3177 3178 3179 3181 3182 3184
3174 3173 3174 3174 3175 3174 3174 3172 3171 3170 3168 3168 3167 3167 3163 3162 3162 3163 3165 3166 3167 3168 3167 3167 3168 3171 3172 3175 3176 3177 3177 3176 3178 3178 3177 3176 3175 3175 3176 3176 3177 3178 3180 3180
3171 3172 3173 3172 3173 3172 3172 3171 3170 3168 3167 3167 3167 3168 3165 3163 3163 3164 3165 3166 3167 3167 3165 3165 3166 3170 3174 3175 3177 3176 3176 3176 3178 3178 3177 3176 3175 3174 3173 3174 3174 3175 3175 3177
3169 3169 3169 3168 3170 3170 3171 3170 3169 3169 3170 3169 3166 3166 3165 3164 3162 3162 3163 3164 3166 3166 3166 3165 3166 3169 3173 3175 3177 3174 3170 3169 3170 3173 3175 3175 3174 3172 3171 3171 3171 3171 3171 3172
3168 3169 3167 3165 3168 3169 3170 3170 3171 3173 3175 3169 3167 3167 3165 3164 3163 3162 3163 3163 3164 3165 3165 3165 3164 3166 3170 3171 3168 3166 3164 3164 3163 3164 3170 3172 3173 3171 3169 3167 3167 3167 3166 3166
3168 3168 3168 3167 3167 3169 3169 3170 3171 3170 3169 3169 3167 3167 3164 3163 3163 3163 3163 3163 3163 3164 3164 3167 3166 3166 3166 3164 3166 3165 3162 3160 3166 3161 3166 3169 3171 3170 3167 3166 3164 3162 3161 3160
3168 3168 3168 3167 3168 3168 3168 3169 3169 3169 3170 3170 3165 3164 3162 3162 3162 3163 3162 3161 3162 3161 3161 3162 3167 3165 3165 3163 3162 3165 3163 3159 3162 3162 3166 3167 3170 3168 3164 3163 3162 3160 3158 3157
3164 3167 3168 3167 3167 3167 3168 3166 3167 3168 3168 3167 3168 3163 3160 3160 3161 3160 3160 3160 3160 3160 3161 3162 3165 3165 3163 3162 3161 3157 3158 3158 3158 3159 3159 3164 3166 3165 3163 3161 3160 3158 3155 3154
3160 3163 3165 3166 3165 3165 3164 3164 3164 3166 3167 3165 3163 3163 3159 3158 3157 3157 3157 3157 3158 3160 3160 3161 3161 3160 3158 3156 3154 3154 3154 3155 3156 3158 3159 3161 3162 3160 3159 3159 3159 3157 3155 3153
3161 3161 3162 3164 3166 3164 3162 3162 3162 3163 3163 3163 3163 3161 3158 3156 3156 3156 3155 3155 3155 3156 3157 3157 3157 3156 3154 3152 3150 3150 3150 3152 3155 3156 3155 3154 3156 3156 3157 3157 3156 3155 3154 3151
3160 3160 3161 3162 3161 3161 3160 3159 3158 3159 3160 3160 3159 3156 3157 3154 3152 3152 3152 3151 3152 3152 3153 3154 3153 3151 3151 3149 3147 3145 3147 3148 3147 3149 3151 3153 3152 3152 3155 3155 3155 3154 3154 3153
3158 3157 3158 3158 3158 3157 3157 3156 3155 3155 3155 3154 3154 3150 3151 3151 3149 3145 3145 3146 3147 3149 3150 3150 3150 3150 3149 3147 3147 3145 3143 3144 3145 3147 3147 3144 3145 3147 3148 3149 3150 3150 3151 3150
3154 3154 3154 3154 3155 3154 3153 3153 3152 3150 3149 3148 3147 3146 3144 3145 3145 3143 3141 3142 3142 3143 3144 3146 3146 3146 3145 3145 3145 3144 3140 3141 3143 3145 3145 3144 3143 3145 3145 3145 3144 3146 3147 3146
3151 3150 3151 3150 3151 3150 3149 3148 3147 3146 3145 3146 3144 3143 3141 3140 3140 3139 3139 3138 3138 3138 3140 3142 3141 3141 3139 3138 3138 3138 3138 3136 3137 3140 3142 3142 3142 3140 3138 3139 3138 3139 3141 3140
3143 3145 3146 3145 3147 3147 3143 3143 3143 3143 3142 3141 3141 3140 3139 3138 3138 3137 3136 3136 3136 3137 3137 3137 3137 3136 3135 3134 3133 3132 3133 3132 3131 3132 3134 3134 3134 3133 3132 3130 3132 3133 3132 3135
3138 3139 3142 3142 3141 3142 3141 3140 3140 3138 3139 3138 3138 3137 3136 3135 3133 3133 3133 3133 3132 3131 3131 3131 3130 3130 3130 3129 3127 3126 3126 3126 3125 3123 3123 3123 3123 3123 3122 3123 3125 3124 3125 3128
3136 3136 3138 3138 3138 3137 3136 3136 3136 3135 3134 3134 3134 3133 3133 3132 3129 3131 3128 3126 3125 3124 3123 3123 3122 3121 3121 3121 3119 3117 3116 3117 3116 3116 3115 3113 3114 3115 3114 3114 3114 3116 3117 3120
3135 3135 3135 3134 3135 3134 3134 3133 3132 3133 3135 3131 3130 3129 3127 3125 3124 3123 3123 3119 3117 3115 3114 3112 3110 3109 3109 3110 3107 3106 3105 3106 3105 3106 3105 3105 3105 3106 3105 3104 3105 3106 3108 3109
3133 3133 3132 3132 3132 3132 3131 3131 3132 3130 3127 3126 3124 3122 3118 3116 3113 3110 3107 3105 3104 3101 3099 3098 3095 3094 3095 3095 3093 3092 3092 3092 3090 3091 3092 3094 3093 3094 3095 3095 3096 3098 3098 3101
3131 3131 3131 3132 3130 3127 3126 3125 3124 3122 3120 3118 3114 3111 3106 3101 3099 3096 3092 3089 3086 3084 3082 3080 3078 3076 3077 3078 3077 3075 3077 3076 3074 3075 3076 3076 3079 3080 3083 3085 3087 3089 3090 3092
3126 3126 3126 3126 3124 3123 3122 3119 3117 3114 3111 3108 3105 3100 3096 3091 3088 3083 3079 3075 3072 3068 3063 3062 3059 3057 3058 3062 3062 3060 3061 3061 3060 3060 3062 3064 3063 3066 3069 3073 3076 3080 3082 3084
3124 3122 3121 3120 3119 3117 3116 3114 3111 3107 3103 3099 3096 3091 3086 3080 3074 3069 3065 3063 3060 3056 3052 3047 3043 3042 3043 3046 3046 3047 3047 3047 3046 3047 3049 3051 3052 3054 3057 3060 3064 3068 3073 3076
3119 3118 3117 3114 3113 3110 3109 3108 3104 3099 3096 3091 3085 3080 3077 3070 3063 3058 3053 3051 3048 3046 3042 3036 3032 3030 3031 3032 3034 3035 3035 3035 3034 3033 3036 3038 3040 3043 3045 3048 3052 3056 3061 3065